Regional Weather Roundup
Issued by NWS

Home | Current Version | Previous Version | Graphics & Text | Print | Product List | Glossary On
Versions: 1 2 3 4 5 6 7 8 9 10 11 12 13 14 15 16 17 18 19 20 21 22 23 24 25 26 27 28 29 30 31 32 33 34 35 36 37 38 39 40 41 42 43 44 45 46 47 48 49 50
000
ASUS43 KMPX 280010
RWRMN
WEATHER ROUNDUP FOR MINNESOTA
NATIONAL WEATHER SERVICE TWIN CITIES/CHANHASSEN MN
700 PM CDT SUN JUL 27 2014


NOTE: "FAIR" INDICATES FEW OR NO CLOUDS BELOW 12,000 FEET WITH NO
SIGNIFICANT WEATHER AND/OR OBSTRUCTIONS TO VISIBILITY. N/A MEANS
CURRENT SKY AND/OR WEATHER CONDITIONS ARE NOT AVAILABLE.

MNZ060>063-068>070-280100-
   Twin Cities Metro

CITY           SKY/WX    TMP DP  RH WIND       PRES   REMARKS
TWIN CITIES    PTSUNNY   71  58  63 N20G26    30.01R
6HR MIN TEMP:  71; 6HR MAX TEMP:  78; 6HR PCP:  0.03;

ST PAUL        LGT RAIN  70  60  70 N16G25    30.02R
CRYSTAL        MOSUNNY   71  59  65 N13       30.01R
BLAINE         PTSUNNY   72  61  68 N14G22    30.03R
LAKEVILLE      PTSUNNY   70  59  68 N13G18    30.01R
EDEN PRAIRIE   PTSUNNY   73  59  61 N9        30.01R
6HR MIN TEMP:  67; 6HR MAX TEMP:  79; 6HR PCP: TRACE;

SOUTH ST PAUL  MOSUNNY   72  58  62 N14G22    30.01R
LAKE ELMO      PTSUNNY   68  61  77 N12G17    30.03R
$$
MNZ001>005-007-008-013>017-022>024-027-028-280100-
   Northwest Minnesota

CITY           SKY/WX    TMP DP  RH WIND       PRES   REMARKS
BEMIDJI        CLOUDY    64  56  75 N7        30.14R
HALLOCK        SUNNY     68  55  64 N10       30.18S
ROSEAU         PTSUNNY   68  55  64 NW9       30.15F
WARROAD        PTSUNNY   68  55  64 NW6       30.15S
THIEF RVR FALL CLOUDY    64  57  77 NW8       30.17S
CROOKSTON      CLOUDY    64  57  77 N8        30.18S
FOSSTON        CLOUDY    63  57  82 N9        30.16S
DETROIT LAKES  PTSUNNY   64  57  77 N15       30.16R
MOORHEAD       CLOUDY    66  61  82 N9        30.17S
PARK RAPIDS    CLOUDY    67  56  67 N13       30.12R
$$
MNZ006-009>011-018-025>026-280100-
   North Central Minnesota

CITY           SKY/WX    TMP DP  RH WIND       PRES   REMARKS
BAUDETTE       PTSUNNY   67  53  61 NW8       30.14R
FLAG ISLAND    MOSUNNY   70  52  52 N12       30.13R
INTL FALLS     PTSUNNY   70  51  51 N9        30.10R
6HR MIN TEMP:  64; 6HR MAX TEMP:  71;

WASKISH        CLOUDY    66  55  68 NW7       30.13S
BIG FORK       PTSUNNY   66  55  68 VRB1      30.12R
LONGVILLE      CLOUDY    64  57  77 N3        30.11R
GRAND RAPIDS   CLOUDY    63  55  77 N8        30.10S
CRANE LAKE     CLOUDY    64  52  63 N6        30.10R
ORR            PTSUNNY   66  52  59 CALM      30.07R
COOK           PTSUNNY   66  52  59 N5        30.09R
$$
MNZ012-019>021-037-280100-
   Northeast Minnesota

CITY           SKY/WX    TMP DP  RH WIND       PRES   REMARKS
DULUTH         PTSUNNY   61  57  87 W5        30.07R
6HR MIN TEMP:  58; 6HR MAX TEMP:  61; 6HR PCP:  0.04;

ELY            MOSUNNY   66  50  55 N3        30.07R
HIBBING        CLOUDY    67  53  61 N8        30.08S
EVELETH        PTSUNNY   64  52  63 N9        30.09R
DULUTH HARBOR  CLOUDY    63  55  77 W7        30.06S
TWO HARBORS    PTSUNNY   63  54  72 SW6       30.03F
SILVER BAY     SUNNY     64  61  88 CALM      30.02S
GRAND MARAIS     N/A     54  47  77 NE6       30.02R
G MARAIS ARPRT   N/A     63  46  55 N10       30.06R
$$
MNZ029>031-032-039>041-046>048-054>057-064-280100-
   West Central Minnesota

CITY           SKY/WX    TMP DP  RH WIND       PRES   REMARKS
FERGUS FALLS   CLOUDY    64  55  72 N15       30.15S
WHEATON        CLOUDY    63  55  77 NW14G20   30.18R
MORRIS         PTSUNNY   66  57  72 NW16G22   30.13S
ALEXANDRIA     CLOUDY    68  58  70 N15       30.13R
ELBOW LAKE     CLOUDY    65  58  77 NW16G22   30.14R
WADENA         PTSUNNY   63  59  88 NW9       30.12R
GLENWOOD       MOSUNNY   70  59  68 NW16G23   30.11S
APPLETON       SUNNY     70  55  60 NW17      30.13S
BENSON         MOSUNNY   68  57  68 N15G25    30.12R
ORTONVILLE     PTSUNNY   66  55  68 NW12G18   30.15S
MADISON        MOSUNNY   70  57  64 NW16G24   30.15R
WILLMAR        FAIR      72  55  56 NW22      30.10S
$$
MNZ033>034-036-042>043-049>051-058-059-280100-
   Central Minnesota

CITY           SKY/WX    TMP DP  RH WIND       PRES   REMARKS
ST CLOUD       SUNNY     72  58  61 NE10G18   30.05R
6HR MIN TEMP:  70; 6HR MAX TEMP:  79;

SAUK CENTRE    CLOUDY    65  61  88 NW10      30.09S
PAYNESVILLE    LGT RAIN  64  60  86 W12       30.08S
AITKIN         CLOUDY    66  57  72 CALM      30.08R
PINE RIVER     CLOUDY    66  57  72 NE6       30.14R
BRAINERD       CLOUDY    66  56  70 N10       30.09R
STAPLES        CLOUDY    64  61  88 N7        30.10R
LONG PRAIRIE   PTSUNNY   64  61  88 W10       30.10S
LITTLE FALLS   PTSUNNY   70  55  60 N6        30.07R
LITCHFIELD     PTSUNNY   72  63  73 NW12      30.07R
BUFFALO        SUNNY     70  57  64 N9        30.06R
MAPLE LAKE     MOSUNNY   69  61  73 N8        30.07R
$$
MNZ037-044-045-052-053-280100-
   East Central Minnesota

CITY           SKY/WX    TMP DP  RH WIND       PRES   REMARKS
PRINCETON      CLOUDY    68  59  73 N12       30.06S
MORA           MOSUNNY   64  59  82 NE3       30.09R
CAMBRIDGE      MOSUNNY   68  55  64 N5        30.04R
RUSH CITY      PTSUNNY   65  58  76 N10       30.06R
MOOSE LAKE     CLOUDY    59  55  88 N3        30.06F
HINCKLEY       MOCLDY    63  57  82 N8        30.08R
CLOQUET        CLOUDY    59  55  88 CALM      30.08R
MCGREGOR       CLOUDY    61  59  94 CALM      30.09S
$$
MNZ071>073-080-081-089-090-097-098-280100-
   Southwest Minnesota

CITY           SKY/WX    TMP DP  RH WIND       PRES   REMARKS
MONTEVIDEO     CLOUDY    70  57  64 N15G24    30.13R
GRANITE FALLS  PTSUNNY   69  58  69 W18G25    30.13R
CANBY          PTSUNNY   68  56  65 NW13G20   30.16R
MARSHALL       CLOUDY    68  55  64 NW22      30.12S
REDWOOD FALLS  MOSUNNY   72  58  61 NW18G29   30.08R
OLIVIA         PTSUNNY   72  59  64 NW18G24   30.08R
PIPESTONE      PTSUNNY   66  57  72 N12G21    30.15S
WINDOM         PTSUNNY   70  57  64 NW20      30.11R
WORTHINGTON    PTSUNNY   68  55  64 NW16G23   30.14S
JACKSON        MOSUNNY   70  55  60 NW15G24   30.11R
TRACY          PTSUNNY   68  58  70 NW14      30.13S
SLAYTON        PTSUNNY   68  55  64 NW17G23   30.14S
$$
MNZ065>067-074>077-082>085-091>093-280100-
   South Central Minnesota

CITY           SKY/WX    TMP DP  RH WIND       PRES   REMARKS
MANKATO        CLOUDY    70  55  60 NW16G22   30.04R
NEW ULM        MOSUNNY   73  61  64 NW23G29   30.05S
ST JAMES       MOSUNNY   73  57  56 NW17G24   30.07R
FAIRMONT       CLOUDY    72  55  56 NW12G25   30.07R
GLENCOE        RAIN      68  60  75 NW7       30.05R
FARIBAULT      PTSUNNY   73  55  53 NW8G16    30.02R
OWATONNA       PTSUNNY   72  57  60 NW14      30.01R
WASECA         CLOUDY    68  55  64 NW10G17   30.05R
ALBERT LEA     MOSUNNY   72  61  68 NW15G21   30.01S
$$
MNZ078>079-086>088-094>096-280100-
   Southeast Minnesota

CITY           SKY/WX    TMP DP  RH WIND       PRES   REMARKS
ROCHESTER      CLOUDY    69  58  67 N15G22    30.00R
6HR MIN TEMP:  69; 6HR MAX TEMP:  75;

RED WING       PTSUNNY   72  61  68 N9        29.98R
STANTON        PTSUNNY   72  58  62 N12       29.99R
DODGE CENTER   MOSUNNY   68  63  83 N6        30.01R
WINONA         MOSUNNY   70  63  78 NW8       29.95R
AUSTIN         CLOUDY    72  61  68 NW14G20   29.99S
PRESTON        CLOUDY    69  62  78 N13G23    29.99R
$$
ABBREVIATIONS USED IN REMARKS
   TC - TEMPERATURES IN CELSIUS
  WCI - WIND CHILL INDEX
   HX - HEAT INDEX
  VSB - VISIBILITY
$$


USA.gov is the U.S. government's official web portal to all federal, state and local government web resources and services.